www.pogodaiklimat.ru

Погода и климат >> Архив погоды >> Шри Ланка >> Ратнапура


ПОГОДА в Ратнапуре

  • Прогноз погоды в Ратнапуре
  • Монитор погоды в Ратнапуре

АРХИВ ПОГОДЫ в Ратнапуре

Время (UTC), дата Ветер
(напр.,м/с)
 
Видим.   Явления Облачность Т
(С)
Тd
(С)
f
(%)
Тe
(С)
Тes
(С)
Комфортность P
(гПа)
Po
(гПа)
Тmin
(С)
Tmax
(С)
R
(мм)
R24
(мм)
S
(см)
03 10.06 ЮЗ 2 7000 м мгла {дождь} 9/3 480 м
[Cu hum Ac trans Cs]
+24.0 +23.7 98 +33 +35 очень
душно
1009.7 999.8 +22.7 3
09 10.06 штиль 0 7000 м слаб. ливневой дождь 9/5 240 м
[Frnb Ac As]
+25.6 +24.7 95 +36 +40 очень
душно
1008.8 998.9 6
15 10.06 штиль 0 10 км 6/3 480 м
[Sc Ac trans]
+25.5 +25.1 98 +37 +37 очень
душно
1009.5 999.6
18 10.06 В 1 5000 м дымка 3/0
[Cs]
+25.0 +24.5 97 +35 +35 очень
душно
1009.7 999.8
21 10.06 штиль 0 900 м туман {ливн. осадки} ?/? +24.4 +24.3 99 +34 +34 очень
душно
1008.8 998.9 2
00 11.06 ЮЗ 2 8000 м {ливн. осадки, туман} 9/4 360 м
[Frnb Ac As Cs]
+24.0 +23.7 98 +33 +33 очень
душно
1008.9 999.0 2
03 11.06 ЮВ 2 10 км 9/3 480 м
[Cu hum Ac As Cs]
+26.2 +25.1 94 +38 +41 очень
душно
1009.8 999.9 +23.8
06 11.06 ЮЗ 1 18 км 6/5 480 м
[Cu med, cong Ac trans]
+31.4 +24.6 67 +44 +54 опасность
перегрева
1009.1 999.4
09 11.06 З 6 18 км 6/4 480 м
[Cu med, cong Ac trans]
+32.5 +24.2 62 +45 +47 опасность
перегрева
1008.2 998.5
12 11.06 З 6 18 км 10/8 480 м
[Cu med, cong Ac As]
+30.0 +23.7 69 +41 +41 опасность
перегрева
1008.1 998.4 +32.8
15 11.06 З 4 10 км слаб. ливневой дождь 10/6 480 м
[Cu med, cong Ac As]
+25.2 +24.5 96 +35 +35 очень
душно
1009.7 999.8 3
21 11.06 В 3 15 км {ливн. осадки} 10/5 480 м
[Cu med, cong Ac As]
+24.7 +24.4 98 +34 +34 очень
душно
1009.2 999.3 0.0
00 12.06 ЮЗ 2 10 км слаб. дождь 10/5 360 м
[Frnb Ac As]
+22.7 +22.4 98 +31 +31 очень
душно
1010.2 1000.2 26
03 12.06 СВ 1 18 км {дождь} 5/1 480 м
[Cu hum Ac trans]
+25.0 +24.7 98 +35 +41 очень
душно
1010.8 1001.0 +22.2 0.6
06 12.06 СЗ 9 2000 м слаб. ливневой дождь 10/8 450 м
[Cb cap As op]
+26.2 +24.5 90 +37 +37 очень
душно
1010.6 1000.7 2
09 12.06 С 3 20 км {ливн. осадки} 9/4 480 м
[Cu med, cong Ac cuf]
+28.0 +23.9 78 +39 +41 очень
душно
1009.3 999.5 1
12 12.06 СЗ 2 15 км {ливн. осадки} 9/3 480 м
[Cu hum Ac trans]
+28.7 +22.3 68 +37 +38 очень
душно
1008.7 998.9 +29.7
15 12.06 СЗ 2 10 км 9/4 480 м
[Cu med, cong Ac cuf]
+27.2 +22.9 77 +36 +36 очень
душно
1009.7 999.9
18 12.06 С 6 8000 м 10/5 480 м
[Cu med, cong Ac cuf]
+26.0 +24.5 91 +36 +36 очень
душно
1010.1 1000.2
21 12.06 С 2 6000 м дымка 10/4 480 м
[Cu med, cong Ac cuf]
+25.2 +24.5 96 +35 +35 очень
душно
1009.4 999.5
00 13.06 СЗ 2 5000 м дымка {гроза, ливн. осадки} 10/5 480 м
[Cu med, cong Ac cuf]
+24.0 +23.5 97 +32 +32 очень
душно
1009.5 999.6 11
00 14.06 З 2 7000 м мгла 5/1 480 м
[Cu hum Ac trans]
+24.6 +23.7 95 +33 +33 очень
душно
1009.1 999.2
12 14.06 З 2 6000 м {гроза, ливн. осадки} 10/4 480 м
[Cu med, cong As op]
+26.0 +25.3 96 +38 +38 очень
душно
1008.6 998.8 +29.1
15 14.06 С 2 6000 м гроза, ливневой дождь 10/9 480 м
[Cb cap]
+25.7 +25.4 98 +37 +37 очень
душно
1010.6 1000.7 2
18 14.06 ЮЗ 4 8000 м мгла {гроза} 9/9 480 м
[Cu Sc]
+24.5 +24.5 100 +34 +34 очень
душно
1011.2 1001.3 8
00 15.06 З 2 500 м туман на расстоянии 8/1 480 м
[Cu hum Ac trans]
+23.9 +23.6 98 +32 +32 очень
душно
1010.0 1000.0
03 15.06 С 1 8000 м мгла {туман} 4/4 480 м
[Cu hum Ci fib]
+26.2 +25.2 94 +38 +43 очень
душно
1010.5 1000.6 +23.5
06 15.06 СЗ 2 7000 м мгла {туман} 6/5 480 м
[Cu med, cong Cs]
+31.5 +25.7 71 +46 +56 опасность
перегрева
1009.8 1000.1
09 15.06 З 5 10 км 8/5 360 м
[Frnb Cs]
+31.6 +25.7 71 +47 +50 опасность
перегрева
1007.8 998.1
12 15.06 З 5 8000 м 8/5 360 м
[Frnb Ac As Cs]
+30.0 +25.2 76 +44 +44 опасность
перегрева
1008.4 998.7 +33.3
18 15.06 С 1 6000 м дымка 6/4 360 м
[Frnb Ac trans Cs]
+26.6 +24.9 90 +38 +38 очень
душно
1010.5 1000.6
21 15.06 СВ 3 8000 м 8/4 240 м
[Frnb Ac As]
+25.6 +24.7 95 +36 +36 очень
душно
1009.4 999.5
00 16.06 СЗ 3 8000 м {ливн. осадки} 6/5 360 м
[Frnb Ac As]
+25.5 +24.9 96 +36 +36 очень
душно
1009.7 999.8 0.4
03 16.06 С 2 10 км 5/4 480 м
[Cu hum Ci fib]
+29.4 +26.0 82 +44 +49 опасность
перегрева
1010.6 1000.7 +25.1
12 16.06 СЗ 5 8000 м {ливн. осадки} 8/8 360 м
[Frnb]
+29.5 +25.9 81 +44 +44 опасность
перегрева
1008.8 999.0 +31.4 0.2
15 16.06 С 2 8000 м 6/4 360 м
[Frnb Ac trans Cs]
+27.0 +25.9 94 +40 +40 очень
душно
1010.3 1000.5
18 16.06 С 2 8000 м 6/5 480 м
[Cu med, cong Ac trans Cs]
+26.4 +25.0 92 +38 +38 очень
душно
1010.5 1000.6
21 16.06 СВ 2 6000 м дымка 4/4 360 м
[Frnb Cs]
+25.5 +24.7 95 +36 +36 очень
душно
1009.4 999.5

 

Местоположение метеостанции Ратнапура (Шри Ланка): широта 6.68 долгота 80.40 высота над уровнем моря 88 м.

В архиве по умолчанию представлена погода в Ратнапуре за последнюю неделю. Архивные данные за месяц целиком и за предыдущие месяцы, начиная с января 2011 года, Вы можете получить, выбрав интересующий диапазон дат из раскрывающегося списка и нажав кнопку "Ввод!".


*Определитесь, кто Вы:
робот инопланетянин человек

Внимание! Время в таблицах - всемирное. Для получения местного времени необходимо прибавить поправку, которая равна 6 ч.

Смотрите также архив погоды в соседних городах и на ближайших метеорологических станциях:

Погода в Нувара Элия (Шри Ланка) (52 км)
Погода в Ратмалане (Шри Ланка) (60 км)
Погода в Коломбо (Шри Ланка) (63 км)
Погода в Дияталаве (Шри Ланка) (66 км)
Погода в Галле (Шри Ланка) (75 км)
Погода в Канди (Шри Ланка) (77 км)
Погода в Бадулла (Шри Ланка) (79 км)
Погода в Аэропорту Бандаранаайк (Шри Ланка) (79 км)
Погода в Курунегала (Шри Ланка) (88 км)
Погода в Хамбантоте (Шри Ланка) (102 км)

Пояснения к столбцам:

Ветер - указаны скорость ветра в м/с - средняя за 10 мин, порывы в срок и между сроками (в фигурных скобках) и направление, откуда дует ветер: С - северный, СВ - северо-восточный, В - восточный, ЮВ - юго-восточный, Ю - южный, ЮЗ - юго-западный, З - западный, СЗ - северо-западный.
Видимость - горизонтальная дальность видимости в метрах или километрах. При видимости от 1 до 10 км при отсутствии осадков обычно наблюдается дымка, при ухудшении видимости до 1 км и менее - туман. В сухую погоду видимость может ухудшаться дымом, пылью или мглою.
Явления - указаны атмосферные явления, наблюдавшиеся в срок или в последний час перед сроком; фигурными скобками обозначены явления, наблюдавшиеся между сроками (за 1-3 часа до срока); квадратными скобками обозначены град или гололедные отложения с указанием их диаметра в мм.
Облачность - указаны через наклонную черту общая и нижняя облачность в баллах и высота нижней границы облаков в метрах; квадратными скобками обозначены формы облаков: Ci - перистые, Cs - перисто-слоистые, Cc - перисто-кучевые, Ac - высококучевые, As - высокослоистые, Sc - слоисто-кучевые, Ns - слоисто-дождевые, Cu - кучевые, Cb - кучево-дождевые. Подробнее классификацию облаков см. в Атласе облаков (PDF).
T - Температура воздуха - температура, измеренная на высоте 2 м над землей.
Td - Температура точки росы - температура, при понижении до которой содержащийся в воздухе водяной пар достигнет насыщения.
f - Относительная влажность воздуха - влажноcть воздуха, измеренная на высоте 2 м над землей.
Te - Эффективная температура - температура, которую ощущает одетый по сезону человек в тени. Характеристика душности погоды. При расчете учитывается влияние влажности воздуха и скорости ветра на теплоощущения человека.
Tes - Эффективная температура на солнце - температура, которую ощущает человек, с поправкой на солнечный нагрев. Характеристика знойности погоды. Зависит от высоты солнца над горизонтом, облачности и скорости ветра. Ночью, в пасмурную погоду, а также при ветре 12 м/с и более поправка равна нулю.
P - Атмосферное давление - приведенное к уровню моря атмосферное давление.
Po - Атмосферное давление - измеренное на уровне метеостанции атмосферное давление.
Tmin - Минимальная температура - минимум температуры воздуха на высоте 2 м над землей.
Tmax - Максимальная температура - максимум температуры воздуха на высоте 2 м над землей.
R - Количество осадков - Количество выпавших осадков за период времени, мм. При наведении курсора мыши на число - период времени, за который выпало указанное количество осадков.
R24 - Количество осадков - Количество выпавших осадков за 24 часа, мм.
S - Снежный покров - Высота снежного покрова, см. При наведении курсора мыши на число - состояние снежного покрова и степень покрытия местности в баллах.